******** Week 143 almanac for PRN-1 ******** ID: 1 Health: 0 Eccentricity: 0.01123189926 Time of Applicability(s): 405504 Orbital Inclination(rad): 0.9863939882 Rate of Right Ascen(r/s): -7.954617056e-09 SQRT(A) (m 1/2): 5153.625488 Right Ascen at Week(rad): -1.161062793 Argument of Perigee(rad): 0.8837852797 Mean Anom(rad): 2.009195753 Af0(s): 0.0003670393921 Af1(s/s): -1.091394e-11 week: 143 ******** Week 143 almanac for PRN-2 ******** ID: 2 Health: 0 Eccentricity: 0.02065610886 Time of Applicability(s): 405504 Orbital Inclination(rad): 0.9647265096 Rate of Right Ascen(r/s): -8.080336578e-09 SQRT(A) (m 1/2): 5153.619629 Right Ascen at Week(rad): -1.249537457 Argument of Perigee(rad): -1.461162016 Mean Anom(rad): 2.176734094 Af0(s): -0.0005117448608 Af1(s/s): 0 week: 143 ******** Week 143 almanac for PRN-3 ******** ID: 3 Health: 0 Eccentricity: 0.003848552704 Time of Applicability(s): 405504 Orbital Inclination(rad): 0.972420382 Rate of Right Ascen(r/s): -7.977475151e-09 SQRT(A) (m 1/2): 5153.656738 Right Ascen at Week(rad): -0.125589434 Argument of Perigee(rad): 0.9835341032 Mean Anom(rad): 0.8374932149 Af0(s): -5.351087646e-05 Af1(s/s): -1.455192e-11 week: 143 ******** Week 143 almanac for PRN-4 ******** ID: 4 Health: 0 Eccentricity: 0.001639842987 Time of Applicability(s): 405504 Orbital Inclination(rad): 0.9609155261 Rate of Right Ascen(r/s): -7.726036106e-09 SQRT(A) (m 1/2): 5153.618652 Right Ascen at Week(rad): 0.9552150052 Argument of Perigee(rad): -3.114098221 Mean Anom(rad): -2.442666291 Af0(s): -0.0001552569092 Af1(s/s): 0 week: 143 ******** Week 143 almanac for PRN-5 ******** ID: 5 Health: 0 Eccentricity: 0.005894184113 Time of Applicability(s): 405504 Orbital Inclination(rad): 0.9593995216 Rate of Right Ascen(r/s): -8.137481816e-09 SQRT(A) (m 1/2): 5153.592773 Right Ascen at Week(rad): -0.1654418504 Argument of Perigee(rad): 1.01564883 Mean Anom(rad): -1.631163115 Af0(s): -5.275720215e-05 Af1(s/s): 0 week: 143 ******** Week 143 almanac for PRN-6 ******** ID: 6 Health: 0 Eccentricity: 0.002591609955 Time of Applicability(s): 405504 Orbital Inclination(rad): 0.9857768007 Rate of Right Ascen(r/s): -7.943188008e-09 SQRT(A) (m 1/2): 5153.599609 Right Ascen at Week(rad): -1.169332658 Argument of Perigee(rad): -1.008455299 Mean Anom(rad): 2.38584646 Af0(s): 0.0001288783081 Af1(s/s): 1.091394e-11 week: 143 ******** Week 143 almanac for PRN-7 ******** ID: 7 Health: 0 Eccentricity: 0.01540803909 Time of Applicability(s): 405504 Orbital Inclination(rad): 0.9506330611 Rate of Right Ascen(r/s): -8.023191341e-09 SQRT(A) (m 1/2): 5153.644043 Right Ascen at Week(rad): 1.974849339 Argument of Perigee(rad): -2.297245587 Mean Anom(rad): 1.351507857 Af0(s): 0.0002366537353 Af1(s/s): 3.637979e-12 week: 143 ******** Week 143 almanac for PRN-8 ******** ID: 8 Health: 0 Eccentricity: 0.007081985474 Time of Applicability(s): 405504 Orbital Inclination(rad): 0.9652598076 Rate of Right Ascen(r/s): -7.748894201e-09 SQRT(A) (m 1/2): 5153.65918 Right Ascen at Week(rad): -2.24047519 Argument of Perigee(rad): 0.07372133404 Mean Anom(rad): -1.96578889 Af0(s): -4.069841309e-05 Af1(s/s): 0 week: 143 ******** Week 143 almanac for PRN-9 ******** ID: 9 Health: 0 Eccentricity: 0.002351760864 Time of Applicability(s): 405504 Orbital Inclination(rad): 0.9539227309 Rate of Right Ascen(r/s): -7.794610391e-09 SQRT(A) (m 1/2): 5153.597168 Right Ascen at Week(rad): 0.9025739228 Argument of Perigee(rad): 1.85796944 Mean Anom(rad): -1.644557359 Af0(s): -0.000283381543 Af1(s/s): 0 week: 143 ******** Week 143 almanac for PRN-10 ******** ID: 10 Health: 0 Eccentricity: 0.007422924042 Time of Applicability(s): 405504 Orbital Inclination(rad): 0.9722645871 Rate of Right Ascen(r/s): -7.966046103e-09 SQRT(A) (m 1/2): 5153.631348 Right Ascen at Week(rad): -0.128390372 Argument of Perigee(rad): -2.542745805 Mean Anom(rad): 0.009097899242 Af0(s): -0.0002268559692 Af1(s/s): -1.091394e-11 week: 143 ******** Week 143 almanac for PRN-11 ******** ID: 11 Health: 255 Eccentricity: 0.0003190040588 Time of Applicability(s): 405504 Orbital Inclination(rad): 0.9615027531 Rate of Right Ascen(r/s): -8.206056101e-09 SQRT(A) (m 1/2): 5153.703613 Right Ascen at Week(rad): -1.116345156 Argument of Perigee(rad): 2.789069189 Mean Anom(rad): -2.046561817 Af0(s): -1.431981201e-05 Af1(s/s): -3.637979e-11 week: 143 ******** Week 143 almanac for PRN-12 ******** ID: 12 Health: 0 Eccentricity: 0.008543014526 Time of Applicability(s): 405504 Orbital Inclination(rad): 0.9711380699 Rate of Right Ascen(r/s): -7.794610391e-09 SQRT(A) (m 1/2): 5153.572266 Right Ascen at Week(rad): 3.087098886 Argument of Perigee(rad): 1.23410215 Mean Anom(rad): 0.6840063779 Af0(s): -0.0001198342163 Af1(s/s): -7.275958e-12 week: 143 ******** Week 143 almanac for PRN-13 ******** ID: 13 Health: 0 Eccentricity: 0.005783557892 Time of Applicability(s): 405504 Orbital Inclination(rad): 0.968315785 Rate of Right Ascen(r/s): -7.646032773e-09 SQRT(A) (m 1/2): 5153.631836 Right Ascen at Week(rad): 1.054796424 Argument of Perigee(rad): 0.9745867558 Mean Anom(rad): -2.593731941 Af0(s): 0.000190679602 Af1(s/s): 7.275958e-12 week: 143 ******** Week 143 almanac for PRN-14 ******** ID: 14 Health: 0 Eccentricity: 0.001291751862 Time of Applicability(s): 405504 Orbital Inclination(rad): 0.9545399184 Rate of Right Ascen(r/s): -7.977475151e-09 SQRT(A) (m 1/2): 5153.587891 Right Ascen at Week(rad): 3.056448482 Argument of Perigee(rad): 3.053568148 Mean Anom(rad): 0.7094619951 Af0(s): -5.275720215e-05 Af1(s/s): -7.275958e-12 week: 143 ******** Week 143 almanac for PRN-15 ******** ID: 15 Health: 0 Eccentricity: 0.01391506195 Time of Applicability(s): 405504 Orbital Inclination(rad): 0.9298344388 Rate of Right Ascen(r/s): -8.023191341e-09 SQRT(A) (m 1/2): 5153.669922 Right Ascen at Week(rad): 0.7975707657 Argument of Perigee(rad): 1.069238539 Mean Anom(rad): -2.984319177 Af0(s): -7.386008301e-05 Af1(s/s): 3.637979e-12 week: 143 ******** Week 143 almanac for PRN-16 ******** ID: 16 Health: 0 Eccentricity: 0.01260662079 Time of Applicability(s): 405504 Orbital Inclination(rad): 0.9711021173 Rate of Right Ascen(r/s): -7.806039438e-09 SQRT(A) (m 1/2): 5153.531738 Right Ascen at Week(rad): 3.105730611 Argument of Perigee(rad): 0.6936802689 Mean Anom(rad): -1.174156308 Af0(s): -0.000357241626 Af1(s/s): -7.275958e-12 week: 143 ******** Week 143 almanac for PRN-17 ******** ID: 17 Health: 0 Eccentricity: 0.01374197006 Time of Applicability(s): 405504 Orbital Inclination(rad): 0.9802760414 Rate of Right Ascen(r/s): -7.611745631e-09 SQRT(A) (m 1/2): 5153.694824 Right Ascen at Week(rad): -2.15916934 Argument of Perigee(rad): -1.51183469 Mean Anom(rad): -2.06282104 Af0(s): 0.0004408994751 Af1(s/s): 3.637979e-12 week: 143 ******** Week 143 almanac for PRN-18 ******** ID: 18 Health: 0 Eccentricity: 0.002093315124 Time of Applicability(s): 405504 Orbital Inclination(rad): 0.9701733398 Rate of Right Ascen(r/s): -8.091765626e-09 SQRT(A) (m 1/2): 5153.580078 Right Ascen at Week(rad): -1.152651366 Argument of Perigee(rad): 3.100982236 Mean Anom(rad): 2.203700847 Af0(s): 0.0002102751343 Af1(s/s): -7.275958e-12 week: 143 ******** Week 143 almanac for PRN-19 ******** ID: 19 Health: 0 Eccentricity: 0.008922576904 Time of Applicability(s): 405504 Orbital Inclination(rad): 0.9789637688 Rate of Right Ascen(r/s): -7.634603726e-09 SQRT(A) (m 1/2): 5153.63623 Right Ascen at Week(rad): -2.114240855 Argument of Perigee(rad): 1.993435748 Mean Anom(rad): 0.3308911909 Af0(s): 8.064315185e-05 Af1(s/s): 3.637979e-12 week: 143 ******** Week 143 almanac for PRN-20 ******** ID: 20 Health: 0 Eccentricity: 0.005342960358 Time of Applicability(s): 405504 Orbital Inclination(rad): 0.9415490186 Rate of Right Ascen(r/s): -8.354633718e-09 SQRT(A) (m 1/2): 5153.664062 Right Ascen at Week(rad): -0.2786931503 Argument of Perigee(rad): 3.093249415 Mean Anom(rad): 3.08216176 Af0(s): 0.0004084914795 Af1(s/s): 0 week: 143 ******** Week 143 almanac for PRN-21 ******** ID: 21 Health: 0 Eccentricity: 0.02447652817 Time of Applicability(s): 405504 Orbital Inclination(rad): 0.9589740817 Rate of Right Ascen(r/s): -8.080336578e-09 SQRT(A) (m 1/2): 5153.547852 Right Ascen at Week(rad): -1.250915269 Argument of Perigee(rad): -1.031276634 Mean Anom(rad): -1.911190634 Af0(s): 0.0001228489136 Af1(s/s): 0 week: 143 ******** Week 143 almanac for PRN-22 ******** ID: 22 Health: 255 Eccentricity: 0.006859302521 Time of Applicability(s): 405504 Orbital Inclination(rad): 0.9382833174 Rate of Right Ascen(r/s): -8.354633718e-09 SQRT(A) (m 1/2): 5153.583008 Right Ascen at Week(rad): -0.2328838251 Argument of Perigee(rad): -0.8623177878 Mean Anom(rad): 3.110202225 Af0(s): -0.0003346313965 Af1(s/s): 7.275958e-12 week: 143 ******** Week 143 almanac for PRN-23 ******** ID: 23 Health: 0 Eccentricity: 0.001960754395 Time of Applicability(s): 405504 Orbital Inclination(rad): 0.9672911337 Rate of Right Ascen(r/s): -8.034620388e-09 SQRT(A) (m 1/2): 5153.647949 Right Ascen at Week(rad): -0.153033309 Argument of Perigee(rad): 2.902004405 Mean Anom(rad): 1.36506164 Af0(s): 1.130511475e-05 Af1(s/s): -3.637979e-12 week: 143 ******** Week 143 almanac for PRN-24 ******** ID: 24 Health: 0 Eccentricity: 0.01225280762 Time of Applicability(s): 405504 Orbital Inclination(rad): 0.9340888386 Rate of Right Ascen(r/s): -8.194627053e-09 SQRT(A) (m 1/2): 5153.634766 Right Ascen at Week(rad): 1.892755526 Argument of Perigee(rad): 0.7988204956 Mean Anom(rad): 2.318518335 Af0(s): 0.0002185655518 Af1(s/s): 0 week: 143 ******** Week 143 almanac for PRN-25 ******** ID: 25 Health: 0 Eccentricity: 0.01032209396 Time of Applicability(s): 405504 Orbital Inclination(rad): 0.9585246732 Rate of Right Ascen(r/s): -7.931758961e-09 SQRT(A) (m 1/2): 5153.671875 Right Ascen at Week(rad): 3.010898316 Argument of Perigee(rad): 0.9687968771 Mean Anom(rad): 0.4590100453 Af0(s): 0.0002110288086 Af1(s/s): 7.275958e-12 week: 143 ******** Week 143 almanac for PRN-26 ******** ID: 26 Health: 0 Eccentricity: 0.006744384766 Time of Applicability(s): 405504 Orbital Inclination(rad): 0.9393499134 Rate of Right Ascen(r/s): -8.183198006e-09 SQRT(A) (m 1/2): 5153.617676 Right Ascen at Week(rad): 2.964674411 Argument of Perigee(rad): 0.3423855606 Mean Anom(rad): -0.1888994726 Af0(s): 0.000135661377 Af1(s/s): 3.637979e-12 week: 143 ******** Week 143 almanac for PRN-27 ******** ID: 27 Health: 0 Eccentricity: 0.009965896606 Time of Applicability(s): 405504 Orbital Inclination(rad): 0.9739184101 Rate of Right Ascen(r/s): -7.680319916e-09 SQRT(A) (m 1/2): 5153.607422 Right Ascen at Week(rad): -2.221374582 Argument of Perigee(rad): 0.6276677876 Mean Anom(rad): -2.04577685 Af0(s): 4.14520874e-05 Af1(s/s): 2.546585e-11 week: 143 ******** Week 143 almanac for PRN-29 ******** ID: 29 Health: 0 Eccentricity: 0.001752853394 Time of Applicability(s): 405504 Orbital Inclination(rad): 0.9822534385 Rate of Right Ascen(r/s): -7.611745631e-09 SQRT(A) (m 1/2): 5153.729004 Right Ascen at Week(rad): -2.146242106 Argument of Perigee(rad): 2.302539244 Mean Anom(rad): -1.944699276 Af0(s): -0.0003662857178 Af1(s/s): -3.637979e-12 week: 143 ******** Week 143 almanac for PRN-30 ******** ID: 30 Health: 0 Eccentricity: 0.005400657654 Time of Applicability(s): 405504 Orbital Inclination(rad): 0.935814567 Rate of Right Ascen(r/s): -8.206056101e-09 SQRT(A) (m 1/2): 5153.530762 Right Ascen at Week(rad): 1.988603859 Argument of Perigee(rad): -2.753417992 Mean Anom(rad): 1.357740777 Af0(s): -0.0003986937134 Af1(s/s): -3.637979e-12 week: 143 ******** Week 143 almanac for PRN-31 ******** ID: 31 Health: 0 Eccentricity: 0.01045894623 Time of Applicability(s): 405504 Orbital Inclination(rad): 0.9548934531 Rate of Right Ascen(r/s): -8.011762293e-09 SQRT(A) (m 1/2): 5153.608887 Right Ascen at Week(rad): 1.992789349 Argument of Perigee(rad): 0.3628722186 Mean Anom(rad): 0.899974095 Af0(s): -0.0001251099365 Af1(s/s): 0 week: 143 ******** Week 143 almanac for PRN-32 ******** ID: 32 Health: 0 Eccentricity: 0.005386352539 Time of Applicability(s): 405504 Orbital Inclination(rad): 0.9577936355 Rate of Right Ascen(r/s): -7.726036106e-09 SQRT(A) (m 1/2): 5153.714355 Right Ascen at Week(rad): 0.9135994097 Argument of Perigee(rad): -2.380003775 Mean Anom(rad): -1.353505477 Af0(s): -3.69300415e-05 Af1(s/s): -7.275958e-12 week: 143